User: anonymous   Login
Location: Rotheul
(50.2849°N, 11.2349°E)
Time: 04:53:13
(UTC+02:00)
Language:

ISS - Orbit

View from above orbital plane
View from above orbital plane
View from above satellite
View from above satellite

Ground track
Ground track

The orbit data is extracted from the following two-line orbital elements,

1 25544U 98067A   19230.53802581  .00016717  00000-0  10270-3 0  9026
2 25544  51.6395  51.9380 0007612 298.5027  61.5357 15.50405907 24926
Epoch (UTC): 18 August 2019 12:54:45
Eccentricity: 0.0007612
inclination: 51.6395°
perigee height: 410 km
apogee height: 421 km
right ascension of ascending node: 51.9380°
argument of perigee: 298.5027°
revolutions per day: 15.50405907
mean anomaly at epoch: 61.5357°
orbit number at epoch: 2492

The dashed part of the orbit path shows where the satellite is in the earth's shadow,  

DLR